Weather observations for the past three days for
Kosrae Island - Kosrae Airport
| Date | Time (+11) | Wind (kph) | Vis. (km) | Weather | Sky Cond. | Temperature (ºC) | Relative Humidity | Wind Chill (°C) | Heat Index (°C) | Pressure | Precipitation (cm) | ||||||
|---|---|---|---|---|---|---|---|---|---|---|---|---|---|---|---|---|---|
| Air | Dwpt | 6 hour | altimeter (cm) | sea level (mb) | 1 hr | 3 hr | 6 hr | ||||||||||
| Max. | Min. | ||||||||||||||||
| 02 | 14:50 | W 15 | 16.09 | Mostly Cloudy | BKN021TCU BKN300 | 30 | 24 | 70% | 35 | 75.79 | 0.0 | ||||||
| 02 | 13:59 | W 13 | 16.09 | Mostly Cloudy | SCT021 BKN300 | 31 | 25 | 70% | 38 | 75.82 | 0.0 | ||||||
| 02 | 12:50 | W 26 | 16.09 | Partly Cloudy | SCT021 SCT300 | 31 | 25 | 70% | 38 | 75.87 | 0.0 | ||||||
| 02 | 11:50 | W 28 | 16.09 | Mostly Cloudy | SCT020TCU SCT130 BKN300 | 31 | 25 | 70% | 38 | 75.9 | 0.0 | ||||||
| 02 | 10:50 | W 17 | 16.09 | Showers in Vicinity | BKN019TCU BKN130 BKN300 | 29 | 24 | 74% | 34 | 75.92 | 0.0 | ||||||
| 02 | 09:50 | W 15 | 16.09 | Mostly Cloudy | BKN020TCU BKN300 | 29 | 24 | 74% | 34 | 75.92 | 0.0 | ||||||
| 02 | 08:50 | W 15 | 16.09 | Mostly Cloudy | SCT018 SCT130 BKN300 | 29 | 24 | 74% | 34 | 75.97 | 0.0 | ||||||
| 01 | 13:50 | W 13 | 16.09 | Overcast | BKN018TCU BKN130 OVC300 | 31 | 25 | 70% | 38 | 75.82 | 0.0 | ||||||
| 01 | 12:51 | W 11 | 16.09 | Overcast | BKN015TCU BKN130 OVC300 | 31 | 25 | 70% | 38 | 75.87 | 0.0 | ||||||
| 01 | 11:50 | W 15 | 16.09 | Mostly Cloudy | BKN017 BKN130 BKN300 | 31 | 25 | 70% | 38 | 75.95 | 0.0 | ||||||
| 01 | 09:50 | W 13 | 16.09 | Overcast | BKN015TCU BKN130 OVC300 | 31 | 26 | 75% | 39 | 75.97 | 0.0 | ||||||
| 01 | 08:58 | W 11 | 16.09 | Overcast | BKN014TCU BKN130 OVC300 | 29 | 26 | 84% | 36 | 76 | 0.0 | ||||||
| 31 | 17:50 | SW 15 | 16.09 | Light Showers Rain | SCT016 BKN130 OVC300 | 28 | 25 | 84% | 33 | 75.79 | 0.0 | ||||||
| 31 | 16:50 | SW 15 | 16.09 | Mostly Cloudy | FEW018 BKN130 BKN300 | 30 | 25 | 75% | 36 | 75.74 | 0.0 | ||||||
| 31 | 15:50 | W 19 | 16.09 | Mostly Cloudy | BKN018 BKN130 BKN300 | 30 | 25 | 75% | 36 | 75.77 | 0.0 | ||||||
| 31 | 14:50 | SW 17 | 16.09 | Showers in Vicinity | BKN016TCU BKN130 BKN300 | 31 | 26 | 75% | 39 | 75.77 | 0.0 | ||||||
| 31 | 13:55 | SW 15 | 16.09 | Mostly Cloudy | BKN017TCU BKN130 BKN300 | 31 | 26 | 75% | 39 | 75.79 | 0.0 | ||||||
| 31 | 12:50 | SW 17 | 16.09 | Mostly Cloudy | BKN017TCU BKN130 BKN300 | 31 | 26 | 75% | 39 | 75.82 | 0.0 | ||||||
| 31 | 11:55 | SW 15 | 16.09 | Mostly Cloudy | BKN016TCU BKN130 BKN300 | 31 | 25 | 70% | 38 | 75.87 | 0.0 | ||||||
| 31 | 10:57 | SW 15 | 16.09 | Mostly Cloudy | SCT017 BKN130 BKN300 | 30 | 25 | 75% | 36 | 75.9 | 0.0 | ||||||
| 31 | 09:55 | S 19 | 16.09 | Overcast | SCT017TCU BKN130 OVC300 | 29 | 26 | 84% | 36 | 75.9 | 0.0 | ||||||
| 31 | 08:58 | S 17 | 16.09 | Overcast | SCT016TCU BKN130 OVC300 | 29 | 25 | 79% | 35 | 75.92 | 0.0 | ||||||
| 30 | 15:50 | SW 20 | 16.09 | Overcast | SCT017 BKN130 OVC300 | 0 | 0 | 0% | 75.67 | 0.0 | |||||||
| Date | Time (+11) | Wind (kph) | Vis. (km) | Weather | Sky Cond. | Air | Dwpt | Max. | Min. | Relative Humidity | Wind Chill (°C) | Heat Index (°C) | altimeter (cm) | sea level (mb) | 1 hr | 3 hr | 6 hr |
| 6 hour | |||||||||||||||||
| Temperature (ºC) | Pressure | Precipitation (cm) | |||||||||||||||